Flag for United Kingdom Weather past 2 weeks in Reading, England, United Kingdom

Now
66 °F

Broken clouds.


Feels Like: 66 °F
Forecast: 58 / 67 °F
Wind: 10 mph from South

Location: Benson

Current Time: Aug 1, 2014 at 9:55:16 AM

Latest Report: Aug 1, 2014 at 8:50 AM


Visibility: N/A

Pressure: 29.80 "Hg

Humidity: 78%

Dew point: 59 °F

Location of ReadingLocation

Historic Weather in Reading — Graph

°F

Reading temperature yesterday

Maximum temperature yesterday: 75 °F (at 2:50 PM)
Minimum temperature yesterday: 50 °F (at 5:50 AM)
Average temperature yesterday: 65 °F

Past Weeks' High & Low Weather Summary

 TemperatureHumidityPressure
High82 °F (Jul 24, 3:50 PM)100% (Jul 19, 9:50 PM)30.24 "Hg (Jul 19, 9:50 PM)
Low48 °F (Jul 30, 5:50 AM)37% (Jul 29, 3:50 PM)29.68 "Hg (Jul 19, 5:50 PM)
Average68 °F72%29.99 "Hg
* Reported Jul 17 8:50 AM — Aug 1 8:50 AM, Reading, Weather by CustomWeather, © 2014

Note: Actual official high and low records may vary slightly from our data, if they occured in-between our weather recording intervals... More about our weather records

Advertising

Reading weather history for previous 24 hours

 ConditionsComfort  
Time TempWeatherWind HumidityBarometerVisibility
8:50 AM
Aug 1
66 °FBroken clouds.10 mph78%29.80 "HgN/A
7:50 AM64 °FBroken clouds.9 mph83%29.80 "HgN/A
6:50 AM59 °FPartly sunny.5 mph94%29.83 "HgN/A
5:50 AM55 °FClear.3 mph100%29.83 "Hg10 mi
4:50 AM57 °FPassing clouds.3 mph100%29.83 "HgN/A
3:50 AM55 °FPassing clouds.3 mph100%29.83 "Hg5 mi
2:50 AM55 °FPassing clouds.3 mph100%29.86 "HgN/A
1:50 AM57 °FClear.2 mph94%29.86 "Hg10 mi
12:50 AM59 °FClear.5 mph88%29.86 "Hg10 mi
11:50 PM
Jul 31
59 °FClear.3 mph94%29.89 "Hg10 mi
10:50 PM64 °FPassing clouds.3 mph83%29.89 "HgN/A
9:50 PM66 °FScattered clouds.2 mph73%29.89 "HgN/A
8:50 PM70 °FScattered clouds.6 mph64%29.89 "HgN/A
7:50 PM70 °FPassing clouds.8 mph64%29.89 "HgN/A
6:50 PM70 °FScattered clouds.7 mph60%29.89 "HgN/A
5:50 PM70 °FSprinkles. Scattered clouds.14 mph64%29.89 "HgN/A
4:50 PM73 °FPartly sunny.14 mph53%29.89 "HgN/A
3:50 PM75 °FScattered clouds.12 mph44%29.89 "HgN/A
2:50 PM75 °FMore clouds than sun.10 mph47%29.92 "HgN/A
1:50 PM73 °FPartly sunny.9 mph47%29.92 "HgN/A
12:50 PM73 °FPartly sunny.10 mph53%29.92 "HgN/A
11:50 AM72 °FPartly sunny.8 mph50%29.95 "HgN/A
10:50 AM70 °FBroken clouds.8 mph60%29.95 "HgN/A
9:50 AM68 °FScattered clouds.8 mph64%29.95 "HgN/A
Weather by CustomWeather, © 2014

See weather overviewHow to use our weather pages